EW7342 Weather Reports


time (UTC)temp
F
wind
direction
speed
knots
gust
knots
rain 1hr
in
rain 24hr
in
rain mn
in
humidity
%
barometer
mb
20260505032019 68 179 1.7 3.5 0.00 0.02 0.02 46 1015.6
20260505031019 68 169 0.9 4.3 0.00 0.02 0.02 45 1015.6
20260505030039 69 173 0.9 4.3 0.00 0.02 0.02 44 1015.5
20260505025019 69 189 1.7 5.2 0.00 0.02 0.02 44 1015.5
20260505024019 68 191 0.9 3.5 0.00 0.02 0.02 45 1015.4
20260505023020 68 157 0.9 5.2 0.00 0.02 0.02 44 1015.4
20260505022019 68 183 0.9 3.5 0.00 0.02 0.02 44 1015.3
20260505021020 68 166 0.0 3.5 0.00 0.02 0.02 45 1015.3
20260505020017 68 154 0.0 3.5 0.00 0.02 0.02 45 1015.2
20260505015017 68 0.0 0.0 0.00 0.02 0.02 45 1015.1
20260505014020 69 0.0 0.0 0.00 0.02 0.02 44 1015.0
20260505013040 70 178 0.0 1.7 0.00 0.02 0.02 43 1014.9
20260505012018 70 0.0 0.0 0.00 0.02 0.02 42 1014.8
20260505011018 70 0.0 0.0 0.00 0.02 0.02 41 1014.7
20260505010018 71 165 1.7 4.3 0.00 0.02 0.02 41 1014.6
20260505005058 71 163 0.9 3.5 0.00 0.02 0.02 41 1014.4
20260505004038 72 171 1.7 3.5 0.00 0.02 0.02 39 1014.3
20260505003019 73 166 2.6 6.1 0.00 0.02 0.02 38 1014.3
20260505002038 73 187 1.7 5.2 0.00 0.02 0.02 36 1014.3
20260505001019 74 174 0.9 3.5 0.00 0.02 0.02 36 1014.2
20260505000018 74 181 0.9 3.5 0.00 0.02 0.02 36 1014.0
20260504235019 75 194 1.7 3.5 0.00 0.02 0.02 35 1013.9
20260504234019 75 199 0.9 3.5 0.00 0.02 0.02 34 1013.8
20260504233020 75 195 0.9 3.5 0.00 0.02 0.02 34 1013.6
20260504232019 75 195 0.9 5.2 0.00 0.02 0.02 32 1013.6
20260504231020 76 201 0.9 2.6 0.00 0.02 0.02 31 1013.5
20260504230016 76 198 1.7 5.2 0.00 0.02 0.02 32 1013.5
20260504225020 76 202 1.7 4.3 0.00 0.02 0.02 33 1013.5
20260504224020 77 197 1.7 4.3 0.00 0.02 0.02 32 1013.6
20260504223037 77 209 0.9 4.3 0.00 0.02 0.02 30 1013.6
20260504222058 77 204 2.6 7.8 0.00 0.02 0.02 29 1013.6
20260504221038 77 214 1.7 6.1 0.00 0.02 0.02 28 1013.6
20260504220021 77 210 1.7 5.2 0.00 0.02 0.02 29 1013.7
20260504215018 77 194 2.6 7.0 0.00 0.02 0.02 28 1013.6
20260504214018 78 236 2.6 6.1 0.00 0.02 0.02 26 1013.6
20260504213039 78 208 1.7 4.3 0.00 0.02 0.02 28 1013.7
20260504212018 78 175 2.6 7.0 0.00 0.02 0.02 28 1013.7
20260504211039 78 207 2.6 6.1 0.00 0.02 0.02 29 1013.6
20260504210019 78 208 3.5 7.8 0.00 0.02 0.02 29 1013.7
20260504205019 79 189 1.7 5.2 0.00 0.02 0.02 29 1013.8
20260504204019 78 189 1.7 6.1 0.00 0.02 0.02 28 1013.9
20260504203019 79 220 1.7 5.2 0.00 0.02 0.02 29 1014.1
20260504202017 78 181 0.9 4.3 0.00 0.02 0.02 29 1014.3
20260504201017 78 211 3.5 7.0 0.00 0.02 0.02 29 1014.3
20260504200020 78 179 2.6 7.8 0.00 0.02 0.02 28 1014.5
20260504195020 78 214 0.9 4.3 0.00 0.02 0.02 26 1014.6
20260504194020 78 204 1.7 5.2 0.00 0.02 0.02 29 1014.7
20260504193017 77 205 1.7 7.0 0.00 0.02 0.02 30 1014.7
20260504192018 78 216 1.7 6.1 0.00 0.02 0.02 29 1014.9
20260504191018 78 204 1.7 4.3 0.00 0.02 0.02 30 1014.9
20260504190020 78 214 2.6 5.2 0.00 0.02 0.02 31 1015.0
20260504185018 78 181 0.0 4.3 0.00 0.02 0.02 30 1015.1
20260504184018 77 206 1.7 7.0 0.00 0.02 0.02 29 1015.1
20260504183018 76 200 0.9 4.3 0.00 0.02 0.02 29 1015.4
20260504182018 76 194 0.9 6.1 0.00 0.02 0.02 32 1015.5
20260504181019 75 198 0.9 4.3 0.00 0.02 0.02 32 1015.5
20260504180136 76 207 1.7 5.2 0.00 0.02 0.02 32 1015.6
20260504175016 77 177 1.7 5.2 0.00 0.02 0.02 31 1015.8
20260504174019 78 211 0.0 3.5 0.00 0.02 0.02 30 1015.9
20260504173039 76 166 0.0 2.6 0.00 0.02 0.02 31 1015.9
20260504172019 77 116 0.0 2.6 0.00 0.02 0.02 32 1016.0
20260504171019 76 197 0.0 2.6 0.00 0.02 0.02 33 1016.1
20260504151021 68 312 0.9 2.6 0.00 0.02 0.02 51 1017.6
20260504141022 60 157 0.9 2.6 0.00 0.02 0.02 64 1017.9
20260504081019 52 0.0 0.0 0.00 0.00 0.00 79 1016.9
20260504050019 56 169 0.9 2.6 0.00 0.00 0.00 67 1017.1
20260504045020 56 166 0.0 2.6 0.00 0.00 0.00 67 1017.2
20260504044020 57 0.0 0.0 0.00 0.00 0.00 66 1017.3
20260504043040 57 0.0 0.0 0.00 0.00 0.00 65 1017.4
20260504042017 57 160 0.0 2.6 0.00 0.00 0.00 65 1017.5
20260504041017 57 0.0 0.0 0.00 0.00 0.00 65 1017.5
20260504040020 58 0.0 0.0 0.00 0.00 0.00 65 1017.5
20260504035041 58 0.0 0.0 0.00 0.00 0.00 64 1017.6
20260504034038 58 0.0 0.0 0.00 0.00 0.00 64 1017.6
20260504033018 59 144 0.0 1.7 0.00 0.00 0.00 63 1017.6